| time (UTC) | temp F | wind direction | speed MPH | gust MPH | rain 1hr in | rain 24hr in | rain mn in | humidity % | barometer mb |
| 20260505124503 | 63 | 65 | 1.0 | 2.0 | 0.00 | 0.00 | 0.00 | 77 | 1018.5 |
| 20260505124000 | 63 | 326 | 1.0 | 2.0 | 0.00 | 0.00 | 0.00 | 77 | 1018.3 |
| 20260505123456 | 63 | 316 | 0.0 | 1.0 | 0.00 | 0.00 | 0.00 | 78 | 1018.5 |
| 20260505122952 | 62 | 345 | 1.0 | 7.0 | 0.00 | 0.00 | 0.00 | 79 | 1018.4 |
| 20260505122450 | 62 | 328 | 0.0 | 3.0 | 0.00 | 0.00 | 0.00 | 79 | 1018.4 |
| 20260505121946 | 62 | 323 | 0.0 | 1.0 | 0.00 | 0.00 | 0.00 | 79 | 1018.4 |
| 20260505121443 | 61 | 343 | 0.0 | 0.0 | 0.00 | 0.00 | 0.00 | 81 | 1018.5 |
| 20260505120939 | 60 | 329 | 0.0 | 1.0 | 0.00 | 0.00 | 0.00 | 82 | 1018.4 |
| 20260505120436 | 60 | 6 | 0.0 | 0.0 | 0.00 | 0.00 | 0.00 | 82 | 1018.3 |
| 20260505115935 | 59 | 330 | 0.0 | 0.0 | 0.00 | 0.00 | 0.00 | 84 | 1018.4 |
| 20260505115432 | 59 | 277 | 0.0 | 0.0 | 0.00 | 0.00 | 0.00 | 86 | 1018.1 |
| 20260505114930 | 58 | 235 | 0.0 | 0.0 | 0.00 | 0.00 | 0.00 | 90 | 1018.3 |
| 20260505114426 | 57 | 235 | 0.0 | 0.0 | 0.00 | 0.00 | 0.00 | 92 | 1018.3 |
| 20260505113922 | 55 | 235 | 0.0 | 0.0 | 0.00 | 0.00 | 0.00 | 94 | 1018.4 |
| 20260505113419 | 54 | 236 | 0.0 | 0.0 | 0.00 | 0.00 | 0.00 | 98 | 1018.1 |
| 20260505112915 | 53 | 236 | 0.0 | 0.0 | 0.00 | 0.00 | 0.00 | 99 | 1018.0 |
| 20260505112413 | 52 | 236 | 0.0 | 0.0 | 0.00 | 0.00 | 0.00 | 99 | 1018.1 |
| 20260505111908 | 51 | 236 | 0.0 | 0.0 | 0.00 | 0.00 | 0.00 | 99 | 1018.0 |
| 20260505111403 | 50 | 236 | 0.0 | 0.0 | 0.00 | 0.00 | 0.00 | 99 | 1018.1 |
| 20260505110859 | 49 | 236 | 0.0 | 0.0 | 0.00 | 0.00 | 0.00 | 99 | 1017.9 |
| 20260505110357 | 49 | 236 | 0.0 | 0.0 | 0.00 | 0.00 | 0.00 | 99 | 1017.8 |
| 20260505101827 | 49 | 236 | 0.0 | 0.0 | 0.00 | 0.00 | 0.00 | 99 | 1017.5 |
| 20260505101322 | 49 | 236 | 0.0 | 0.0 | 0.00 | 0.00 | 0.00 | 99 | 1017.3 |
| 20260505100818 | 49 | 236 | 0.0 | 0.0 | 0.00 | 0.00 | 0.00 | 98 | 1017.4 |
| 20260505100315 | 49 | 236 | 0.0 | 0.0 | 0.00 | 0.00 | 0.00 | 98 | 1017.2 |
| 20260505095811 | 49 | 236 | 0.0 | 0.0 | 0.00 | 0.00 | 0.00 | 98 | 1017.1 |
| 20260505095309 | 49 | 236 | 0.0 | 0.0 | 0.00 | 0.00 | 0.00 | 98 | 1017.1 |
| 20260505094804 | 50 | 236 | 0.0 | 0.0 | 0.00 | 0.00 | 0.00 | 98 | 1017.1 |
| 20260505094301 | 50 | 236 | 0.0 | 0.0 | 0.00 | 0.00 | 0.00 | 97 | 1017.1 |
| 20260505093757 | 50 | 236 | 0.0 | 0.0 | 0.00 | 0.00 | 0.00 | 97 | 1017.2 |
| 20260505093255 | 50 | 236 | 0.0 | 0.0 | 0.00 | 0.00 | 0.00 | 97 | 1017.3 |
| 20260505092751 | 50 | 236 | 0.0 | 0.0 | 0.00 | 0.00 | 0.00 | 96 | 1016.9 |
| 20260505092250 | 50 | 236 | 0.0 | 0.0 | 0.00 | 0.00 | 0.00 | 96 | 1017.2 |
| 20260505091747 | 50 | 236 | 0.0 | 0.0 | 0.00 | 0.00 | 0.00 | 95 | 1017.2 |
| 20260505091245 | 50 | 236 | 0.0 | 0.0 | 0.00 | 0.00 | 0.00 | 95 | 1017.1 |
| 20260505090742 | 51 | 236 | 0.0 | 0.0 | 0.00 | 0.00 | 0.00 | 94 | 1017.1 |
| 20260505090240 | 51 | 236 | 0.0 | 0.0 | 0.00 | 0.00 | 0.00 | 94 | 1017.0 |
| 20260505085737 | 51 | 236 | 0.0 | 0.0 | 0.00 | 0.00 | 0.00 | 93 | 1017.0 |
| 20260505085236 | 52 | 236 | 0.0 | 0.0 | 0.00 | 0.00 | 0.00 | 93 | 1017.0 |
| 20260505084732 | 52 | 236 | 0.0 | 0.0 | 0.00 | 0.00 | 0.00 | 92 | 1017.0 |
| 20260505084232 | 52 | 236 | 0.0 | 0.0 | 0.00 | 0.00 | 0.00 | 92 | 1016.8 |
| 20260505083728 | 53 | 236 | 0.0 | 0.0 | 0.00 | 0.00 | 0.00 | 90 | 1016.7 |
| 20260505083225 | 53 | 236 | 0.0 | 0.0 | 0.00 | 0.00 | 0.00 | 90 | 1016.9 |
| 20260505082721 | 53 | 236 | 0.0 | 0.0 | 0.00 | 0.00 | 0.00 | 89 | 1017.0 |
| 20260505082218 | 54 | 236 | 0.0 | 0.0 | 0.00 | 0.00 | 0.00 | 88 | 1016.8 |
| 20260505081713 | 54 | 236 | 0.0 | 0.0 | 0.00 | 0.00 | 0.00 | 88 | 1016.8 |
| 20260505081211 | 54 | 236 | 0.0 | 0.0 | 0.00 | 0.00 | 0.00 | 87 | 1016.7 |
| 20260505080708 | 54 | 236 | 0.0 | 0.0 | 0.00 | 0.00 | 0.00 | 87 | 1016.5 |
| 20260505080204 | 55 | 236 | 0.0 | 0.0 | 0.00 | 0.00 | 0.00 | 86 | 1016.5 |
| 20260505075700 | 55 | 236 | 0.0 | 0.0 | 0.00 | 0.00 | 0.00 | 86 | 1016.7 |
| 20260505075157 | 55 | 236 | 0.0 | 0.0 | 0.00 | 0.00 | 0.00 | 85 | 1016.6 |
| 20260505074654 | 55 | 236 | 0.0 | 0.0 | 0.00 | 0.00 | 0.00 | 84 | 1016.6 |
| 20260505074151 | 55 | 235 | 0.0 | 0.0 | 0.00 | 0.00 | 0.00 | 84 | 1016.7 |
| 20260505073649 | 56 | 238 | 0.0 | 0.0 | 0.00 | 0.00 | 0.00 | 84 | 1016.7 |
| 20260505073147 | 56 | 257 | 0.0 | 1.0 | 0.00 | 0.00 | 0.00 | 84 | 1016.5 |
| 20260505072642 | 56 | 261 | 0.0 | 1.0 | 0.00 | 0.00 | 0.00 | 84 | 1016.6 |
| 20260505072139 | 56 | 277 | 0.0 | 1.0 | 0.00 | 0.00 | 0.00 | 84 | 1016.6 |
| 20260505071634 | 56 | 251 | 0.0 | 1.0 | 0.00 | 0.00 | 0.00 | 84 | 1016.7 |
| 20260505071132 | 56 | 271 | 0.0 | 1.0 | 0.00 | 0.00 | 0.00 | 83 | 1016.6 |
| 20260505070629 | 56 | 316 | 0.0 | 1.0 | 0.00 | 0.00 | 0.00 | 83 | 1016.6 |
| 20260505070125 | 56 | 287 | 0.0 | 1.0 | 0.00 | 0.00 | 0.00 | 83 | 1016.4 |
| 20260505065622 | 56 | 292 | 0.0 | 0.0 | 0.00 | 0.00 | 0.00 | 83 | 1016.6 |
| 20260505065118 | 56 | 292 | 0.0 | 0.0 | 0.00 | 0.00 | 0.00 | 82 | 1016.5 |
| 20260505064615 | 57 | 269 | 0.0 | 0.0 | 0.00 | 0.00 | 0.00 | 82 | 1016.5 |
| 20260505064114 | 57 | 269 | 0.0 | 0.0 | 0.00 | 0.00 | 0.00 | 82 | 1016.5 |
| 20260505063611 | 57 | 270 | 0.0 | 0.0 | 0.00 | 0.00 | 0.00 | 81 | 1016.5 |
| 20260505063106 | 57 | 312 | 0.0 | 0.0 | 0.00 | 0.00 | 0.00 | 81 | 1016.6 |
| 20260505062603 | 57 | 260 | 0.0 | 0.0 | 0.00 | 0.00 | 0.00 | 81 | 1016.3 |
| 20260505062100 | 57 | 246 | 0.0 | 0.0 | 0.00 | 0.00 | 0.00 | 80 | 1016.6 |
| 20260505061558 | 58 | 270 | 0.0 | 0.0 | 0.00 | 0.00 | 0.00 | 80 | 1016.6 |
| 20260505061056 | 58 | 225 | 0.0 | 0.0 | 0.00 | 0.00 | 0.00 | 79 | 1016.5 |
| 20260505060553 | 58 | 225 | 0.0 | 1.0 | 0.00 | 0.00 | 0.00 | 79 | 1016.5 |
| 20260505060050 | 58 | 326 | 0.0 | 0.0 | 0.00 | 0.00 | 0.00 | 79 | 1016.6 |
| 20260505055545 | 58 | 304 | 0.0 | 0.0 | 0.00 | 0.00 | 0.00 | 78 | 1016.6 |
| 20260505055042 | 58 | 59 | 2.0 | 2.0 | 0.00 | 0.00 | 0.00 | 78 | 1016.6 |
| 20260505054539 | 59 | 232 | 0.0 | 1.0 | 0.00 | 0.00 | 0.00 | 78 | 1016.6 |
| 20260505054037 | 59 | 257 | 0.0 | 1.0 | 0.00 | 0.00 | 0.00 | 77 | 1016.6 |
| 20260505053534 | 59 | 293 | 0.0 | 0.0 | 0.00 | 0.00 | 0.00 | 77 | 1016.7 |
| 20260505053031 | 59 | 321 | 0.0 | 2.0 | 0.00 | 0.00 | 0.00 | 76 | 1016.7 |
| 20260505052527 | 60 | 345 | 0.0 | 0.0 | 0.00 | 0.00 | 0.00 | 76 | 1017.0 |
| 20260505052025 | 60 | 275 | 2.0 | 3.0 | 0.00 | 0.00 | 0.00 | 76 | 1016.7 |
| 20260505051522 | 60 | 345 | 0.0 | 0.0 | 0.00 | 0.00 | 0.00 | 75 | 1016.8 |
| 20260505051020 | 60 | 322 | 1.0 | 1.0 | 0.00 | 0.00 | 0.00 | 75 | 1016.9 |
| 20260505050518 | 60 | 323 | 0.0 | 1.0 | 0.00 | 0.00 | 0.00 | 74 | 1017.0 |
| 20260505041445 | 62 | 88 | 1.0 | 3.0 | 0.00 | 0.00 | 0.00 | 71 | 1016.7 |
| 20260505040943 | 62 | 66 | 0.0 | 1.0 | 0.00 | 0.00 | 0.00 | 71 | 1016.9 |
| 20260505040440 | 62 | 64 | 0.0 | 2.0 | 0.00 | 0.00 | 0.00 | 71 | 1017.0 |
| 20260505035937 | 62 | 90 | 1.0 | 5.0 | 0.00 | 0.00 | 0.00 | 70 | 1016.9 |
| 20260505035433 | 63 | 330 | 0.0 | 1.0 | 0.00 | 0.00 | 0.00 | 70 | 1017.0 |
| 20260505034930 | 63 | 100 | 0.0 | 2.0 | 0.00 | 0.00 | 0.00 | 70 | 1017.0 |
| 20260505034426 | 63 | 343 | 2.0 | 3.0 | 0.00 | 0.00 | 0.00 | 69 | 1016.9 |
| 20260505033924 | 63 | 66 | 2.0 | 6.0 | 0.00 | 0.00 | 0.00 | 69 | 1016.7 |
| 20260505033420 | 63 | 3 | 0.0 | 1.0 | 0.00 | 0.00 | 0.00 | 69 | 1016.8 |
| 20260505032919 | 63 | 21 | 1.0 | 5.0 | 0.00 | 0.00 | 0.00 | 69 | 1016.9 |
| 20260505032415 | 64 | 61 | 1.0 | 6.0 | 0.00 | 0.00 | 0.00 | 68 | 1016.9 |
| 20260505031912 | 64 | 18 | 0.0 | 2.0 | 0.00 | 0.00 | 0.00 | 68 | 1016.8 |
| 20260505031409 | 64 | 354 | 1.0 | 6.0 | 0.00 | 0.00 | 0.00 | 68 | 1016.8 |
| 20260505030906 | 64 | 13 | 0.0 | 1.0 | 0.00 | 0.00 | 0.00 | 67 | 1017.0 |
| 20260505030401 | 64 | 68 | 2.0 | 3.0 | 0.00 | 0.00 | 0.00 | 67 | 1016.7 |
| 20260505025857 | 64 | 30 | 0.0 | 1.0 | 0.00 | 0.00 | 0.00 | 67 | 1016.9 |
| 20260505025355 | 65 | 72 | 2.0 | 2.0 | 0.00 | 0.00 | 0.00 | 66 | 1016.8 |
| 20260505024854 | 65 | 19 | 3.0 | 5.0 | 0.00 | 0.00 | 0.00 | 66 | 1016.8 |
| 20260505024351 | 65 | 4 | 1.0 | 5.0 | 0.00 | 0.00 | 0.00 | 66 | 1016.7 |
| 20260505023848 | 65 | 78 | 2.0 | 2.0 | 0.00 | 0.00 | 0.00 | 66 | 1016.7 |
| 20260505023345 | 66 | 70 | 1.0 | 3.0 | 0.00 | 0.00 | 0.00 | 66 | 1016.7 |
| 20260505022842 | 66 | 88 | 3.0 | 6.0 | 0.00 | 0.00 | 0.00 | 66 | 1016.6 |
| 20260505022339 | 66 | 344 | 0.0 | 5.0 | 0.00 | 0.00 | 0.00 | 66 | 1016.6 |
| 20260505021836 | 66 | 25 | 2.0 | 7.0 | 0.00 | 0.00 | 0.00 | 66 | 1016.8 |
| 20260505021333 | 66 | 332 | 1.0 | 5.0 | 0.00 | 0.00 | 0.00 | 66 | 1016.7 |
| 20260505020828 | 66 | 338 | 1.0 | 2.0 | 0.00 | 0.00 | 0.00 | 65 | 1016.6 |
| 20260505020324 | 67 | 57 | 1.0 | 5.0 | 0.00 | 0.00 | 0.00 | 65 | 1016.6 |
| 20260505015821 | 67 | 84 | 5.0 | 6.0 | 0.00 | 0.00 | 0.00 | 64 | 1016.7 |
| 20260505015318 | 67 | 59 | 3.0 | 5.0 | 0.00 | 0.00 | 0.00 | 64 | 1016.4 |
| 20260505014816 | 67 | 331 | 0.0 | 5.0 | 0.00 | 0.00 | 0.00 | 64 | 1016.3 |
| 20260505014312 | 67 | 47 | 0.0 | 1.0 | 0.00 | 0.00 | 0.00 | 64 | 1016.5 |
| 20260505013809 | 67 | 4 | 1.0 | 6.0 | 0.00 | 0.00 | 0.00 | 63 | 1016.4 |
| 20260505013306 | 68 | 252 | 1.0 | 3.0 | 0.00 | 0.00 | 0.00 | 62 | 1016.2 |
| 20260505012805 | 68 | 294 | 0.0 | 5.0 | 0.00 | 0.00 | 0.00 | 62 | 1016.2 |
| 20260505012304 | 68 | 323 | 2.0 | 2.0 | 0.00 | 0.00 | 0.00 | 60 | 1016.0 |
| 20260505011757 | 69 | 313 | 0.0 | 2.0 | 0.00 | 0.00 | 0.00 | 59 | 1016.0 |
| 20260505011255 | 69 | 335 | 2.0 | 3.0 | 0.00 | 0.00 | 0.00 | 58 | 1015.9 |
| 20260505010750 | 69 | 84 | 3.0 | 5.0 | 0.00 | 0.00 | 0.00 | 56 | 1015.8 |
| 20260505010246 | 68 | 81 | 1.0 | 5.0 | 0.00 | 0.00 | 0.00 | 53 | 1015.8 |
| 20260505005742 | 68 | 99 | 2.0 | 3.0 | 0.00 | 0.00 | 0.00 | 52 | 1015.5 |
| 20260505005235 | 68 | 306 | 0.0 | 0.0 | 0.00 | 0.00 | 0.00 | 52 | 1015.3 |
| 20260505004732 | 68 | 306 | 0.0 | 0.0 | 0.00 | 0.00 | 0.00 | 51 | 1015.4 |
| 20260505004228 | 68 | 60 | 1.0 | 1.0 | 0.00 | 0.00 | 0.00 | 51 | 1015.2 |
| 20260505003725 | 68 | 6 | 0.0 | 1.0 | 0.00 | 0.00 | 0.00 | 51 | 1015.3 |
| 20260505003223 | 69 | 343 | 0.0 | 0.0 | 0.00 | 0.00 | 0.00 | 50 | 1015.3 |
| 20260505002719 | 69 | 9 | 1.0 | 1.0 | 0.00 | 0.00 | 0.00 | 49 | 1015.2 |
| 20260505002217 | 69 | 356 | 0.0 | 1.0 | 0.00 | 0.00 | 0.00 | 49 | 1015.1 |
| 20260505001714 | 69 | 333 | 0.0 | 0.0 | 0.00 | 0.00 | 0.00 | 49 | 1014.9 |
| 20260505001212 | 70 | 50 | 0.0 | 1.0 | 0.00 | 0.00 | 0.00 | 48 | 1015.1 |
| 20260505000708 | 70 | 93 | 2.0 | 2.0 | 0.00 | 0.00 | 0.00 | 47 | 1015.1 |
| 20260505000206 | 71 | 102 | 0.0 | 3.0 | 0.00 | 0.00 | 0.00 | 47 | 1015.1 |
| 20260504235703 | 71 | 320 | 0.0 | 0.0 | 0.00 | 0.00 | 0.00 | 46 | 1015.1 |
| 20260504235158 | 72 | 349 | 0.0 | 0.0 | 0.00 | 0.00 | 0.00 | 46 | 1014.9 |
| 20260504234656 | 72 | 267 | 0.0 | 2.0 | 0.00 | 0.00 | 0.00 | 45 | 1014.9 |
| 20260504234153 | 73 | 316 | 1.0 | 2.0 | 0.00 | 0.00 | 0.00 | 44 | 1014.8 |
| 20260504233649 | 73 | 66 | 1.0 | 2.0 | 0.00 | 0.00 | 0.00 | 44 | 1014.7 |
| 20260504233145 | 74 | 2 | 0.0 | 1.0 | 0.00 | 0.00 | 0.00 | 44 | 1014.7 |
| 20260504232643 | 74 | 294 | 0.0 | 2.0 | 0.00 | 0.00 | 0.00 | 43 | 1014.8 |
| 20260504232140 | 75 | 116 | 0.0 | 3.0 | 0.00 | 0.00 | 0.00 | 42 | 1014.7 |
| 20260504231636 | 76 | 264 | 0.0 | 1.0 | 0.00 | 0.00 | 0.00 | 41 | 1014.5 |
| 20260504231133 | 77 | 77 | 1.0 | 2.0 | 0.00 | 0.00 | 0.00 | 39 | 1014.6 |
| 20260504230629 | 77 | 75 | 1.0 | 3.0 | 0.00 | 0.00 | 0.00 | 40 | 1014.6 |
| 20260504230128 | 77 | 61 | 1.0 | 2.0 | 0.00 | 0.00 | 0.00 | 38 | 1014.4 |
| 20260504225626 | 77 | 89 | 1.0 | 3.0 | 0.00 | 0.00 | 0.00 | 38 | 1014.5 |
| 20260504225121 | 78 | 93 | 1.0 | 5.0 | 0.00 | 0.00 | 0.00 | 37 | 1014.5 |
| 20260504224618 | 78 | 112 | 1.0 | 5.0 | 0.00 | 0.00 | 0.00 | 39 | 1014.5 |
| 20260504224114 | 78 | 93 | 1.0 | 3.0 | 0.00 | 0.00 | 0.00 | 38 | 1014.4 |
| 20260504223612 | 78 | 67 | 3.0 | 6.0 | 0.00 | 0.00 | 0.00 | 37 | 1014.6 |
| 20260504223107 | 79 | 83 | 3.0 | 5.0 | 0.00 | 0.00 | 0.00 | 36 | 1014.4 |
| 20260504222604 | 79 | 61 | 1.0 | 2.0 | 0.00 | 0.00 | 0.00 | 37 | 1014.4 |
| 20260504222101 | 79 | 358 | 3.0 | 5.0 | 0.00 | 0.00 | 0.00 | 36 | 1014.5 |
| 20260504221559 | 80 | 4 | 0.0 | 5.0 | 0.00 | 0.00 | 0.00 | 36 | 1014.5 |
| 20260504221055 | 80 | 39 | 2.0 | 3.0 | 0.00 | 0.00 | 0.00 | 36 | 1014.4 |
| 20260504220552 | 80 | 55 | 1.0 | 2.0 | 0.00 | 0.00 | 0.00 | 36 | 1014.4 |
| 20260504220049 | 80 | 331 | 1.0 | 3.0 | 0.00 | 0.00 | 0.00 | 35 | 1014.4 |
| 20260504215545 | 80 | 12 | 1.0 | 5.0 | 0.00 | 0.00 | 0.00 | 36 | 1014.4 |
| 20260504215043 | 81 | 94 | 1.0 | 3.0 | 0.00 | 0.00 | 0.00 | 35 | 1014.4 |
| 20260504214538 | 81 | 105 | 1.0 | 2.0 | 0.00 | 0.00 | 0.00 | 34 | 1014.5 |
| 20260504214035 | 81 | 5 | 1.0 | 2.0 | 0.00 | 0.00 | 0.00 | 35 | 1014.3 |
| 20260504213532 | 81 | 60 | 2.0 | 5.0 | 0.00 | 0.00 | 0.00 | 34 | 1014.6 |
| 20260504213029 | 82 | 290 | 1.0 | 5.0 | 0.00 | 0.00 | 0.00 | 33 | 1014.4 |
| 20260504212525 | 81 | 98 | 3.0 | 5.0 | 0.00 | 0.00 | 0.00 | 31 | 1014.5 |
| 20260504212022 | 81 | 19 | 1.0 | 2.0 | 0.00 | 0.00 | 0.00 | 33 | 1014.4 |
| 20260504211519 | 81 | 22 | 1.0 | 2.0 | 0.00 | 0.00 | 0.00 | 33 | 1014.5 |
| 20260504211017 | 80 | 83 | 1.0 | 3.0 | 0.00 | 0.00 | 0.00 | 32 | 1014.6 |
| 20260504210513 | 82 | 7 | 1.0 | 5.0 | 0.00 | 0.00 | 0.00 | 32 | 1014.6 |
| 20260504210010 | 81 | 70 | 2.0 | 5.0 | 0.00 | 0.00 | 0.00 | 33 | 1014.4 |
| 20260504205509 | 81 | 352 | 1.0 | 5.0 | 0.00 | 0.00 | 0.00 | 31 | 1014.4 |
| 20260504205006 | 81 | 72 | 2.0 | 6.0 | 0.00 | 0.00 | 0.00 | 32 | 1014.7 |
| 20260504204503 | 80 | 292 | 1.0 | 5.0 | 0.00 | 0.00 | 0.00 | 32 | 1014.5 |
| 20260504204002 | 81 | 132 | 3.0 | 5.0 | 0.00 | 0.00 | 0.00 | 30 | 1014.6 |
| 20260504203500 | 81 | 54 | 3.0 | 5.0 | 0.00 | 0.00 | 0.00 | 31 | 1014.6 |
| 20260504202956 | 81 | 336 | 0.0 | 3.0 | 0.00 | 0.00 | 0.00 | 33 | 1014.6 |
| 20260504202452 | 81 | 79 | 3.0 | 6.0 | 0.00 | 0.00 | 0.00 | 29 | 1014.7 |
| 20260504201949 | 80 | 20 | 2.0 | 6.0 | 0.00 | 0.00 | 0.00 | 33 | 1014.9 |
| 20260504201446 | 80 | 103 | 5.0 | 7.0 | 0.00 | 0.00 | 0.00 | 30 | 1014.7 |
| 20260504200944 | 80 | 317 | 3.0 | 9.0 | 0.00 | 0.00 | 0.00 | 30 | 1014.9 |
| 20260504200440 | 81 | 248 | 1.0 | 2.0 | 0.00 | 0.00 | 0.00 | 32 | 1015.0 |
| 20260504195937 | 80 | 82 | 3.0 | 5.0 | 0.00 | 0.00 | 0.00 | 31 | 1015.0 |
| 20260504195433 | 80 | 9 | 1.0 | 3.0 | 0.00 | 0.00 | 0.00 | 32 | 1014.7 |
| 20260504194930 | 81 | 18 | 2.0 | 7.0 | 0.00 | 0.00 | 0.00 | 33 | 1014.9 |
| 20260504194426 | 82 | 82 | 2.0 | 2.0 | 0.00 | 0.00 | 0.00 | 29 | 1015.1 |
| 20260504193922 | 79 | 24 | 1.0 | 2.0 | 0.00 | 0.00 | 0.00 | 30 | 1014.9 |
| 20260504193419 | 80 | 357 | 3.0 | 5.0 | 0.00 | 0.00 | 0.00 | 30 | 1015.0 |
| 20260504192918 | 80 | 357 | 4.0 | 7.0 | 0.00 | 0.00 | 0.00 | 31 | 1015.3 |
| 20260504192415 | 79 | 61 | 1.0 | 2.0 | 0.00 | 0.00 | 0.00 | 32 | 1015.2 |
| 20260504191914 | 79 | 305 | 2.0 | 2.0 | 0.00 | 0.00 | 0.00 | 35 | 1015.4 |
| 20260504191411 | 80 | 73 | 2.0 | 2.0 | 0.00 | 0.00 | 0.00 | 36 | 1015.3 |
| 20260504190906 | 79 | 101 | 1.0 | 2.0 | 0.00 | 0.00 | 0.00 | 34 | 1015.3 |
| 20260504190402 | 79 | 86 | 4.0 | 9.0 | 0.00 | 0.00 | 0.00 | 35 | 1015.5 |
| 20260504185859 | 78 | 354 | 2.0 | 6.0 | 0.00 | 0.00 | 0.00 | 34 | 1015.8 |
| 20260504185356 | 79 | 63 | 3.0 | 6.0 | 0.00 | 0.00 | 0.00 | 35 | 1015.5 |
| 20260504184852 | 78 | 352 | 0.0 | 2.0 | 0.00 | 0.00 | 0.00 | 40 | 1015.6 |
| 20260504184348 | 78 | 51 | 2.0 | 5.0 | 0.00 | 0.00 | 0.00 | 35 | 1015.7 |
| 20260504183844 | 79 | 71 | 1.0 | 5.0 | 0.00 | 0.00 | 0.00 | 37 | 1015.6 |
| 20260504183342 | 79 | 319 | 0.0 | 2.0 | 0.00 | 0.00 | 0.00 | 38 | 1015.5 |
| 20260504182839 | 78 | 304 | 2.0 | 5.0 | 0.00 | 0.00 | 0.00 | 38 | 1015.7 |
| 20260504182337 | 78 | 5 | 1.0 | 5.0 | 0.00 | 0.00 | 0.00 | 37 | 1015.7 |
| 20260504181833 | 79 | 44 | 2.0 | 7.0 | 0.00 | 0.00 | 0.00 | 37 | 1015.9 |
| 20260504181331 | 78 | 326 | 1.0 | 2.0 | 0.00 | 0.00 | 0.00 | 39 | 1015.8 |
| 20260504180830 | 77 | 115 | 2.0 | 9.0 | 0.00 | 0.00 | 0.00 | 36 | 1015.8 |
| 20260504180328 | 77 | 16 | 1.0 | 7.0 | 0.00 | 0.00 | 0.00 | 38 | 1015.7 |
| 20260504175825 | 78 | 69 | 3.0 | 3.0 | 0.00 | 0.00 | 0.00 | 39 | 1015.8 |
| 20260504175322 | 77 | 173 | 2.0 | 3.0 | 0.00 | 0.00 | 0.00 | 43 | 1016.1 |
| 20260504174820 | 77 | 8 | 3.0 | 5.0 | 0.00 | 0.00 | 0.00 | 39 | 1015.9 |
| 20260504174317 | 76 | 39 | 2.0 | 2.0 | 0.00 | 0.00 | 0.00 | 39 | 1016.1 |
| 20260504173814 | 77 | 7 | 2.0 | 5.0 | 0.00 | 0.00 | 0.00 | 40 | 1016.3 |
| 20260504173311 | 76 | 74 | 2.0 | 2.0 | 0.00 | 0.00 | 0.00 | 43 | 1016.3 |
| 20260504172808 | 76 | 22 | 1.0 | 6.0 | 0.00 | 0.00 | 0.00 | 41 | 1016.3 |
| 20260504172304 | 75 | 67 | 3.0 | 5.0 | 0.00 | 0.00 | 0.00 | 42 | 1016.5 |
| 20260504171801 | 76 | 161 | 3.0 | 6.0 | 0.00 | 0.00 | 0.00 | 40 | 1016.4 |
| 20260504171258 | 75 | 55 | 4.0 | 5.0 | 0.00 | 0.00 | 0.00 | 40 | 1016.6 |
| 20260504170755 | 75 | 15 | 2.0 | 3.0 | 0.00 | 0.00 | 0.00 | 44 | 1016.5 |
| 20260504170252 | 75 | 87 | 4.0 | 5.0 | 0.00 | 0.00 | 0.00 | 47 | 1016.6 |
| 20260504160210 | 72 | 54 | 2.0 | 5.0 | 0.00 | 0.00 | 0.00 | 51 | 1017.5 |
| 20260504151138 | 68 | 341 | 2.0 | 5.0 | 0.00 | 0.00 | 0.00 | 59 | 1017.6 |
| 20260504150635 | 67 | 17 | 2.0 | 6.0 | 0.00 | 0.00 | 0.00 | 59 | 1017.7 |
| 20260504150132 | 67 | 22 | 3.0 | 6.0 | 0.00 | 0.00 | 0.00 | 62 | 1017.6 |
| 20260504141101 | 63 | 21 | 2.0 | 3.0 | 0.00 | 0.00 | 0.00 | 71 | 1017.8 |
| 20260504140557 | 62 | 61 | 0.0 | 2.0 | 0.00 | 0.00 | 0.00 | 74 | 1017.7 |
| 20260504130521 | 59 | 130 | 2.0 | 2.0 | 0.00 | 0.00 | 0.00 | 80 | 1017.9 |